EmpreSS Of The Seas — C6CM8 — position and weather

sailwx.info

Track history (hours):
 
Tides and Currents Weather Stations Pressure Air Temp Water Temp Dewpoint Dewpoint Depression Visibility Wind Speed Wind Dir Waves Ship Positions

EmpreSS Of The Seas

Last reported at 2018-Jun-21 07:00 UTC. Time now 2018-Jun-21 10:09 UTC.
Position N 23°42' W 081°24'.

Length 211 m; draft 7.3 m.

Type: Passenger vessel. MMSI: 311000515.

Wind from 230 at 2 knots

Barometer 1015.3 mb
Air temperature 25.0 ° C
Visibility: greater than 10.8 NM
Dewpoint 23.6 ° C
Water temperature 25.0 ° C

Date/timePositionNaut miles runAvg speedWind from/ knotsBaromVisibWave heightAir tempDewpointWater temp
2018-Jun-21 07:00N 23°42' W 081°24'   230 / 21015.310.8 25.023.625.0
2018-Jun-18 21:53N 25°30' W 080°01'514.4
2018-Jun-18 21:30N 25°35' W 080°01'714.6
2018-Jun-18 21:00N 25°43' W 080°03'5 9.1
2018-Jun-18 20:30N 25°45' W 080°07'4 7.6
2018-Jun-18 20:00N 25°47' W 080°11'0 0.0
2018-Jun-18 19:28N 25°47' W 080°11'0 0.0
2018-Jun-18 18:55N 25°47' W 080°11'0 0.0
2018-Jun-18 18:28N 25°47' W 080°11'0 0.0
2018-Jun-18 17:58N 25°47' W 080°11'0 0.0
2018-Jun-18 17:25N 25°47' W 080°11'0 0.0
2018-Jun-18 16:58N 25°47' W 080°11'0 0.0
2018-Jun-18 16:25N 25°47' W 080°11'0 0.0
2018-Jun-18 15:58N 25°47' W 080°11'0 0.0
2018-Jun-18 15:28N 25°47' W 080°11'0 0.0
2018-Jun-18 14:58N 25°47' W 080°11'0 0.0
2018-Jun-18 14:28N 25°47' W 080°11'0 0.0
2018-Jun-18 13:58N 25°47' W 080°11'0 0.0
2018-Jun-18 13:28N 25°47' W 080°11'0 0.0
2018-Jun-18 12:58N 25°47' W 080°11'0 0.0
2018-Jun-18 12:28N 25°47' W 080°11'0 0.0
2018-Jun-18 11:58N 25°47' W 080°11'0 0.0
2018-Jun-18 11:28N 25°47' W 080°11'0 0.0
2018-Jun-18 10:58N 25°47' W 080°11'0 0.6
2018-Jun-18 10:30N 25°47' W 080°11'3 5.6
2018-Jun-18 10:00N 25°46' W 080°08'510.8
2018-Jun-18 09:30N 25°46' W 080°02'815.7
2018-Jun-18 09:00N 25°39' W 079°60'918.0
2018-Jun-18 08:30N 25°30' W 079°57'168 6.6
2018-Jun-17 07:00N 23°24' W 082°00'24210.5 110 / 131018.410.8 26.024.626.0
2018-Jun-16 08:00N 26°00' W 078°36'67 2.9 200 / 51018.010.8 25.023.625.0
2018-Jun-15 09:00N 25°30' W 077°30'12811.4 190 / 51018.810.8 25.023.625.0
2018-Jun-14 21:43N 25°52' W 079°50'315.3
2018-Jun-14 21:30N 25°51' W 079°54'714.6
2018-Jun-14 21:00N 25°48' W 080°01'611.6
2018-Jun-14 20:30N 25°45' W 080°07'4 7.1
2018-Jun-14 20:00N 25°47' W 080°10'0 0.5
2018-Jun-14 19:30N 25°47' W 080°11'0 0.0
2018-Jun-14 19:00N 25°47' W 080°11'0 0.0
2018-Jun-14 18:27N 25°47' W 080°11'0 0.0
2018-Jun-14 17:57N 25°47' W 080°11'0 0.0
2018-Jun-14 17:30N 25°47' W 080°11'0 0.0
2018-Jun-14 17:00N 25°47' W 080°11'0 0.0
2018-Jun-14 16:30N 25°47' W 080°11'0 0.0
2018-Jun-14 15:57N 25°47' W 080°11'0 0.0
2018-Jun-14 15:24N 25°47' W 080°11'0 0.0
2018-Jun-14 14:57N 25°47' W 080°11'0 0.0
2018-Jun-14 14:30N 25°47' W 080°11'0 0.0
2018-Jun-14 14:00N 25°47' W 080°11'0 0.0
2018-Jun-14 13:30N 25°47' W 080°11'0 0.0
2018-Jun-14 13:00N 25°47' W 080°11'0 0.0
2018-Jun-14 12:30N 25°47' W 080°11'0 0.0
2018-Jun-14 11:57N 25°47' W 080°11'0 0.0
2018-Jun-14 11:30N 25°47' W 080°11'0 0.0
2018-Jun-14 11:00N 25°47' W 080°11'0 0.1
2018-Jun-14 10:30N 25°47' W 080°11'2 3.6
2018-Jun-14 10:00N 25°46' W 080°09'510.7
2018-Jun-14 09:30N 25°46' W 080°03'4 8.2
2018-Jun-14 09:00N 25°46' W 079°58'3 6.8
2018-Jun-14 08:30N 25°45' W 079°55'4 7.0
2018-Jun-14 08:00N 25°42' W 079°52'4 8.6
2018-Jun-14 07:29N 25°39' W 079°50'4 8.8
2018-Jun-14 07:00N 25°35' W 079°47'7433.5
2018-Jun-14 07:00N 25°30' W 079°42'3 5.3 140 / 81018.9 5.4 26.024.626.0
2018-Jun-14 06:30N 25°31' W 079°45'134 5.9
2018-Jun-13 08:00N 23°48' W 081°18'   170 / 51016.9 5.4 25.023.627.0
Track history (hours):
 
Tides and Currents Weather Stations Pressure Air Temp Water Temp Dewpoint Dewpoint Depression Visibility Wind Speed Wind Dir Waves Ship Positions

EmpreSS Of The Seas

Last reported at 2018-Jun-21 07:00 UTC. Time now 2018-Jun-21 10:09 UTC.
Position N 23°42' W 081°24'.

Length 211 m; draft 7.3 m.

Type: Passenger vessel. MMSI: 311000515.

Wind from 230 at 2 knots

Barometer 1015.3 mb
Air temperature 25.0 ° C
Visibility: greater than 10.8 NM
Dewpoint 23.6 ° C
Water temperature 25.0 ° C

Date/timePositionNaut miles runAvg speedWind from/ knotsBaromVisibWave heightAir tempDewpointWater temp
2018-Jun-21 07:00N 23°42' W 081°24'   230 / 21015.310.8 25.023.625.0
2018-Jun-18 21:53N 25°30' W 080°01'514.4
2018-Jun-18 21:30N 25°35' W 080°01'714.6
2018-Jun-18 21:00N 25°43' W 080°03'5 9.1
2018-Jun-18 20:30N 25°45' W 080°07'4 7.6
2018-Jun-18 20:00N 25°47' W 080°11'0 0.0
2018-Jun-18 19:28N 25°47' W 080°11'0 0.0
2018-Jun-18 18:55N 25°47' W 080°11'0 0.0
2018-Jun-18 18:28N 25°47' W 080°11'0 0.0
2018-Jun-18 17:58N 25°47' W 080°11'0 0.0
2018-Jun-18 17:25N 25°47' W 080°11'0 0.0
2018-Jun-18 16:58N 25°47' W 080°11'0 0.0
2018-Jun-18 16:25N 25°47' W 080°11'0 0.0
2018-Jun-18 15:58N 25°47' W 080°11'0 0.0
2018-Jun-18 15:28N 25°47' W 080°11'0 0.0
2018-Jun-18 14:58N 25°47' W 080°11'0 0.0
2018-Jun-18 14:28N 25°47' W 080°11'0 0.0
2018-Jun-18 13:58N 25°47' W 080°11'0 0.0
2018-Jun-18 13:28N 25°47' W 080°11'0 0.0
2018-Jun-18 12:58N 25°47' W 080°11'0 0.0
2018-Jun-18 12:28N 25°47' W 080°11'0 0.0
2018-Jun-18 11:58N 25°47' W 080°11'0 0.0
2018-Jun-18 11:28N 25°47' W 080°11'0 0.0
2018-Jun-18 10:58N 25°47' W 080°11'0 0.6
2018-Jun-18 10:30N 25°47' W 080°11'3 5.6
2018-Jun-18 10:00N 25°46' W 080°08'510.8
2018-Jun-18 09:30N 25°46' W 080°02'815.7
2018-Jun-18 09:00N 25°39' W 079°60'918.0
2018-Jun-18 08:30N 25°30' W 079°57'168 6.6
2018-Jun-17 07:00N 23°24' W 082°00'24210.5 110 / 131018.410.8 26.024.626.0
2018-Jun-16 08:00N 26°00' W 078°36'67 2.9 200 / 51018.010.8 25.023.625.0
2018-Jun-15 09:00N 25°30' W 077°30'12811.4 190 / 51018.810.8 25.023.625.0
2018-Jun-14 21:43N 25°52' W 079°50'315.3
2018-Jun-14 21:30N 25°51' W 079°54'714.6
2018-Jun-14 21:00N 25°48' W 080°01'611.6
2018-Jun-14 20:30N 25°45' W 080°07'4 7.1
2018-Jun-14 20:00N 25°47' W 080°10'0 0.5
2018-Jun-14 19:30N 25°47' W 080°11'0 0.0
2018-Jun-14 19:00N 25°47' W 080°11'0 0.0
2018-Jun-14 18:27N 25°47' W 080°11'0 0.0
2018-Jun-14 17:57N 25°47' W 080°11'0 0.0
2018-Jun-14 17:30N 25°47' W 080°11'0 0.0
2018-Jun-14 17:00N 25°47' W 080°11'0 0.0
2018-Jun-14 16:30N 25°47' W 080°11'0 0.0
2018-Jun-14 15:57N 25°47' W 080°11'0 0.0
2018-Jun-14 15:24N 25°47' W 080°11'0 0.0
2018-Jun-14 14:57N 25°47' W 080°11'0 0.0
2018-Jun-14 14:30N 25°47' W 080°11'0 0.0
2018-Jun-14 14:00N 25°47' W 080°11'0 0.0
2018-Jun-14 13:30N 25°47' W 080°11'0 0.0
2018-Jun-14 13:00N 25°47' W 080°11'0 0.0
2018-Jun-14 12:30N 25°47' W 080°11'0 0.0
2018-Jun-14 11:57N 25°47' W 080°11'0 0.0
2018-Jun-14 11:30N 25°47' W 080°11'0 0.0
2018-Jun-14 11:00N 25°47' W 080°11'0 0.1
2018-Jun-14 10:30N 25°47' W 080°11'2 3.6
2018-Jun-14 10:00N 25°46' W 080°09'510.7
2018-Jun-14 09:30N 25°46' W 080°03'4 8.2
2018-Jun-14 09:00N 25°46' W 079°58'3 6.8
2018-Jun-14 08:30N 25°45' W 079°55'4 7.0
2018-Jun-14 08:00N 25°42' W 079°52'4 8.6
2018-Jun-14 07:29N 25°39' W 079°50'4 8.8
2018-Jun-14 07:00N 25°35' W 079°47'7433.5
2018-Jun-14 07:00N 25°30' W 079°42'3 5.3 140 / 81018.9 5.4 26.024.626.0
2018-Jun-14 06:30N 25°31' W 079°45'134 5.9
2018-Jun-13 08:00N 23°48' W 081°18'   170 / 51016.9 5.4 25.023.627.0

Dump ship's entire track history